Quantico, VA

11:26 AM EST on December 14, 2019 (GMT -0500)
Quantico Marine Corps Air Facility

Weather History for KNYG - October, 2019

Change the Weather History Date:

Wednesday, October 2, 2019

  Actual Average Record
Temperature  
Mean Temperature 84 °F -  
Max Temperature 97 °F 69 °F 97 °F (2019)
Min Temperature 72 °F 51 °F 41 °F (1997)
Cooling Degree Days 20    
Growing Degree Days 34 (Base 50)    
Moisture  
Dew Point 69 °F    
Average Humidity 71    
Maximum Humidity 91    
Minimum Humidity 32    
Precipitation  
Precipitation 0.00 in - - ()
Sea Level Pressure  
Sea Level Pressure 29.91 in    
Wind  
Wind Speed 6 mph (WSW)    
Max Wind Speed 9 mph    
Max Gust Speed 17 mph    
Visibility 10 miles    
Events      
Averages and records for this station are not official NWS values.
T = Trace of Precipitation, MM = Missing Value Source: NWS Daily Summary

Daily Weather History Graph

Daily Weather History Graph

Search for Another Location

Airport or City:

Astronomy

Oct. 02, 2019 Rise Set
Actual Time 7:05 AM EDT 6:50 PM EDT
Civil Twilight 6:39 AM EDT 7:17 PM EDT
Nautical Twilight 6:08 AM EDT 7:47 PM EDT
Astronomical Twilight 5:37 AM EDT 8:18 PM EDT
Moon 11:25 AM EDT (10/2) 9:46 PM EDT (10/2)
Length of Visible Light 12h 37m
Length of Day
11h 45m
Waxing Crescent, 20% of the Moon is Illuminated
Oct 2
Waxing Crescent
Oct 5
First Quarter
Oct 13
Full
Oct 21
Last Quarter
Oct 27
New

Hourly Weather History & Observations

Time (EDT) Temp. Heat Index Dew Point Humidity Pressure Visibility Wind Dir Wind Speed Gust Speed Precip Events Conditions
12:56 AM 77.0 °F - 69.1 °F 76% 29.96 in 10.0 mi SW 5.8 mph - N/A   Clear
1:56 AM 77.0 °F - 69.1 °F 76% 29.96 in 10.0 mi SSW 6.9 mph - N/A   Clear
2:56 AM 77.0 °F - 69.1 °F 76% 29.94 in 10.0 mi SSW 6.9 mph - N/A   Clear
3:56 AM 73.0 °F - 69.1 °F 87% 29.94 in 10.0 mi SW 4.6 mph - N/A   Clear
4:56 AM 73.9 °F - 69.1 °F 85% 29.94 in 10.0 mi SW 3.5 mph - N/A   Scattered Clouds
5:56 AM 72.0 °F - 69.1 °F 91% 29.94 in 10.0 mi SW 3.5 mph - N/A   Partly Cloudy
6:56 AM 72.0 °F - 68.0 °F 87% 29.95 in 10.0 mi SW 3.5 mph - N/A   Clear
7:56 AM 73.0 °F - 70.0 °F 90% 29.96 in 10.0 mi SW 4.6 mph - N/A   Scattered Clouds
8:56 AM 73.0 °F - 70.0 °F 90% 29.96 in 10.0 mi SSW 6.9 mph - N/A   Scattered Clouds
9:56 AM 78.1 °F - 71.1 °F 79% 29.96 in 10.0 mi South 8.1 mph - N/A   Partly Cloudy
10:56 AM 75.9 °F - 73.0 °F 91% 29.94 in 10.0 mi South 5.8 mph - N/A   Partly Cloudy
11:56 AM 82.9 °F 88.8 °F 73.0 °F 72% 29.94 in 10.0 mi South 4.6 mph - N/A   Scattered Clouds
12:56 PM 91.0 °F 98.2 °F 72.0 °F 53% 29.91 in 10.0 mi Variable 3.5 mph - N/A   Scattered Clouds
1:56 PM 93.9 °F 96.1 °F 64.9 °F 38% 29.89 in 10.0 mi WNW 5.8 mph - N/A   Scattered Clouds
2:56 PM 97.0 °F 98.3 °F 63.0 °F 32% 29.87 in 10.0 mi West 9.2 mph 17.3 mph N/A   Scattered Clouds
3:56 PM 97.0 °F 99.3 °F 64.0 °F 34% 29.86 in 10.0 mi WNW 9.2 mph - N/A   Partly Cloudy
4:56 PM 96.1 °F 98.8 °F 64.9 °F 36% 29.85 in 10.0 mi WNW 5.8 mph - N/A   Partly Cloudy
5:56 PM 93.9 °F 95.6 °F 64.0 °F 37% 29.84 in 10.0 mi West 5.8 mph - N/A   Clear
6:56 PM 84.0 °F 89.0 °F 71.1 °F 65% 29.86 in 10.0 mi WNW 4.6 mph - N/A   Clear
7:56 PM 81.0 °F 84.9 °F 71.1 °F 72% 29.87 in 10.0 mi WNW 8.1 mph - N/A   Clear
8:56 PM 80.1 °F 83.6 °F 71.1 °F 74% 29.88 in 10.0 mi WNW 4.6 mph - N/A   Clear
9:56 PM 77.0 °F - 72.0 °F 84% 29.90 in 10.0 mi WNW 5.8 mph - N/A   Clear
10:56 PM 78.1 °F - 71.1 °F 79% 29.90 in 10.0 mi West 3.5 mph - N/A   Partly Cloudy
11:56 PM 73.9 °F - 71.1 °F 91% 29.90 in 10.0 mi WNW 3.5 mph - N/A   Scattered Clouds